sat.trackr.live / text

‹ back to catalog

2024-226A

NORAD 62185 · 2024-226A

PAYLOAD ACTIVE UNKNOWN

§ Identity

Operator
Country
PRC
Launch date
2024-11-30
Launch site
WSC
Launch vehicle
Mass (kg)
RCS (m²)

External: N2YO · Heavens-Above · Gunter

§ Orbital elements

Epoch: 2026-05-25T03:14:14.955648Z

Period
105.87 min
Inclination
50.0060°
Eccentricity
0.0056567
Mean motion
13.60152271 rev/d
Perigee alt
993.2 km
Apogee alt
1,077.1 km
Semi-major
7,413.3 km
B*
4.2176e-5
RAAN
351.7500°
Arg perigee
77.6463°
Mean anomaly
283.0747°
Rev number
7,357

§ Raw data

2024-226A1 62185U 24226A   26145.13489532 -.00000104  00000+0  42176-4 0  99902 62185  50.0060 351.7500 0056567  77.6463 283.0747 13.60152271 73579

JSON: /api/v1/satellites/62185 · /tle

For live sub-satellite position, see the globe view (requires WebGL).

§ Visibility from observer

Set your observer location to see the next 7 days of passes ≥ 10°. The values pass through the URL so the page stays shareable.

No JS? Fill the form by hand. The geolocation button needs JavaScript.